ISS (NAUKA)

Last updated on Wed Sep 09 2026 00:02:05 GMT+0000 (Coordinated Universal Time)

1 49044U 21066A 26251.46617104 .00001902 00000+0 42648-4 0 9990 2 49044 51.6295 247.9233 0004929 112.8116 247.3394 15.49040812585043
UTC large
Height (km)
Speed (km/s)
/
Latitude / Longitude
Inclination (degrees)
Orbital Period (minutes)
Azimuth
Elevation
Range (km)
Doppler Factor

Next 0 passes for location: London (51.5072 / 0.1276)

No passes found over London.
ISS (NAUKA)